[[{"header":{"parameterUnit":"m.s-1","parameterCategory":1,"la1":30.2992,"la2":30.254,"lo1":-89.0895,"lo2":-89.0443,"dy":0.0025,"dx":0.0025,"nx":19,"ny":19,"refTime":"2026-03-23T21:00:00:Z","depth":0,"parameterNumber":2,"parameterNumberName":"U-component_of_WINDS"},"data":[0,0,0,-6.6105,-6.6109,-6.6256,-6.6256,-6.6461,-6.6463,0,0,0,0,0,0,0,0,0,0,0,-6.6074,-6.6076,-6.6105,-6.6109,-6.6255,-6.6256,-6.6461,-6.6463,0,0,0,0,0,0,0,0,0,0,0,-6.6074,-6.6076,-6.6078,-6.611,-6.6255,-6.6256,-6.646,-6.6343,0,0,0,0,0,0,0,0,0,0,-6.6197,-6.6182,-6.6075,-6.6078,-6.611,-6.6255,-6.6256,-6.6337,-6.635,-6.6403,0,-6.6456,0,-6.6463,-6.6478,-6.6479,0,0,0,-6.6098,-6.6171,-6.6199,-6.6079,-6.6112,-6.6255,-6.6186,-6.6344,-6.6359,-6.6421,-6.6458,-6.6465,-6.6467,-6.648,-6.6481,-6.6826,-6.6828,0,0,-6.609,-6.6107,-6.6189,-6.621,-6.6191,-6.6182,-6.6191,-6.6353,-6.6394,-6.6459,-6.647,-6.647,-6.6481,-6.6483,-6.6824,-6.6827,0,0,0,-6.6074,-6.6102,-6.6126,-6.6202,-6.6227,-6.6186,-6.6197,-6.6386,-6.6393,-6.6472,-6.6472,-6.6483,-6.6485,-6.6822,-6.6825,-6.6944,0,0,0,-6.6069,-6.6092,-6.6123,-6.6134,-6.6225,-6.6309,-6.6227,-6.6382,-6.64,-6.6471,-6.6483,-6.6488,-6.682,-6.6824,-6.6935,-6.6995,0,0,0,-6.606,-6.6091,-6.6117,-6.6135,-6.6199,-6.6306,-6.6322,-6.6385,-6.6401,-6.6479,-6.6488,-6.6818,-6.6823,-6.6928,-6.6983,-6.7089,0,0,0,-6.6055,-6.622,-6.6119,-6.6303,-6.6198,-6.6381,-6.632,-6.6455,-6.6537,-6.6484,-6.682,-6.6825,-6.6926,-6.6975,-6.7081,-6.7178,-6.7221,0,0,-6.6271,-6.6246,-6.6353,-6.6268,-6.6472,-6.6357,-6.6578,-6.6636,-6.6628,-6.676,-6.6768,-6.6938,-6.6982,-6.7087,-6.7465,-6.7499,0,0,0,-6.6427,-6.6503,-6.6554,-6.6635,-6.6686,-6.6733,-6.6757,-6.6779,-6.6891,-6.67,-6.7007,-6.7032,-6.7093,-6.7138,-6.7168,-6.7217,-6.6848,-6.6847,-6.6847,-6.6752,-6.6736,-6.6911,-6.6912,-6.6991,-6.7016,-6.7077,-6.711,-6.7069,-6.7142,-6.7179,-6.7411,-6.7465,-6.7486,-6.7539,-6.7233,-6.7233,-6.7234,-6.7234,-6.7063,-6.7167,-6.7113,-6.7262,-6.7244,-6.7368,-6.7399,-6.7366,-6.7478,-6.7381,-6.7433,-6.7325,-6.7525,-6.7569,-6.7243,-6.7241,-6.724,-6.7239,-6.7239,-6.727,-6.7317,-6.7344,-6.746,-6.7551,-6.7547,-6.7658,-6.7637,-6.7618,-6.7671,-6.7707,-6.7704,-6.7696,-6.7691,-6.7692,-6.7692,-6.7693,-6.7694,-6.7694,-6.7472,-6.7499,-6.7596,-6.7667,-6.7716,-6.7779,-6.7808,-6.7855,-6.7902,-6.7878,-6.7878,-6.7827,-6.755,-6.7478,-6.7706,-6.7704,-6.7703,-6.7702,-6.7701,-6.7785,-6.7712,-6.7861,-6.7912,-6.7993,-6.8084,-6.8059,-6.8158,-6.8195,-6.825,-6.8191,-6.799,-6.7961,-6.7938,-6.7877,-6.8196,-6.8196,-6.8196,-6.8196,-6.7956,-6.7942,-6.809,-6.8171,-6.8249,-6.8243,-6.841,-6.8436,-6.845,-6.8471,-6.8424,-6.8344,-6.8321,-6.8305,-6.8274,-6.8217,-6.8615,-6.8615,-6.8616,-6.8145,-6.8139,-6.8285,-6.8301,-6.8364,-6.8418,-6.8575,-6.8669,-6.867,-6.8632,-6.8486,-6.8469,-6.834,-6.83,-6.8252,-6.8204,-6.8099,0,0]},{"header":{"parameterUnit":"m.s-1","parameterCategory":1,"la1":30.2992,"la2":30.254,"lo1":-89.0895,"lo2":-89.0443,"dy":0.0025,"dx":0.0025,"nx":19,"ny":19,"refTime":"2026-03-23T21:00:00:Z","depth":0,"parameterNumber":3,"parameterNumberName":"V-component_of_WINDS"},"data":[0,0,0,1.8757,1.8757,1.8762,1.8762,1.8769,1.8769,0,0,0,0,0,0,0,0,0,0,0,1.8758,1.8758,1.8757,1.8757,1.8762,1.8762,1.8769,1.8769,0,0,0,0,0,0,0,0,0,0,0,1.8758,1.8758,1.8758,1.8757,1.8762,1.8762,1.8769,1.8765,0,0,0,0,0,0,0,0,0,0,1.876,1.8762,1.8758,1.8758,1.8758,1.8762,1.8762,1.8765,1.8765,1.8768,0,1.8772,0,1.8771,1.877,1.877,0,0,0,1.8756,1.8762,1.8762,1.8758,1.8758,1.8762,1.8759,1.8765,1.8766,1.8769,1.8772,1.8772,1.8771,1.877,1.877,1.8798,1.8798,0,0,1.8755,1.8759,1.8762,1.8762,1.8763,1.8759,1.876,1.8765,1.8769,1.8772,1.8773,1.8771,1.877,1.877,1.8798,1.8798,0,0,0,1.8756,1.8759,1.8759,1.8762,1.8763,1.876,1.876,1.8768,1.8768,1.8773,1.8772,1.877,1.877,1.8797,1.8798,1.8813,0,0,0,1.8756,1.8759,1.8759,1.8761,1.8763,1.8766,1.8763,1.8768,1.8768,1.8771,1.877,1.8771,1.8797,1.8798,1.8812,1.8819,0,0,0,1.8757,1.8759,1.8761,1.8761,1.8763,1.8766,1.8766,1.8768,1.8768,1.877,1.8771,1.8797,1.8797,1.8811,1.8817,1.8828,0,0,0,1.8758,1.8772,1.8761,1.8776,1.8763,1.8776,1.8766,1.8774,1.8778,1.877,1.8797,1.8798,1.8811,1.8816,1.8827,1.8837,1.8842,0,0,1.8777,1.8774,1.8783,1.8774,1.8789,1.8775,1.8793,1.8791,1.8787,1.8794,1.8795,1.8812,1.8817,1.8828,1.8868,1.8872,0,0,0,1.879,1.8797,1.88,1.8806,1.8807,1.8809,1.8806,1.8806,1.8812,1.8792,1.8819,1.8822,1.8828,1.8832,1.8836,1.8841,1.88,1.88,1.88,1.8821,1.8818,1.8833,1.8831,1.8836,1.8835,1.8839,1.8838,1.8831,1.8838,1.8839,1.8864,1.887,1.8872,1.8878,1.8845,1.8845,1.8845,1.8845,1.8849,1.8858,1.8852,1.8864,1.8861,1.887,1.887,1.8865,1.8874,1.8862,1.8867,1.8854,1.8877,1.8881,1.8846,1.8846,1.8846,1.8846,1.8845,1.8868,1.8872,1.8874,1.8884,1.8891,1.8889,1.8898,1.8894,1.889,1.8895,1.8897,1.8897,1.8896,1.8897,1.8897,1.8897,1.8897,1.8897,1.8897,1.8887,1.8889,1.8898,1.8904,1.8908,1.8913,1.8914,1.8918,1.8921,1.8917,1.8917,1.891,1.888,1.8873,1.8899,1.8898,1.8898,1.8898,1.8898,1.8915,1.8909,1.8923,1.8928,1.8936,1.8944,1.8941,1.8949,1.8952,1.8957,1.895,1.8929,1.8924,1.8922,1.8915,1.8951,1.8951,1.8951,1.8951,1.8931,1.893,1.8945,1.8953,1.8961,1.896,1.8977,1.8978,1.8978,1.898,1.8975,1.8966,1.8964,1.8961,1.8958,1.8951,1.8995,1.8995,1.8995,1.8948,1.8948,1.8963,1.8966,1.8972,1.8978,1.8994,1.9003,1.9002,1.8997,1.8981,1.898,1.8966,1.8962,1.8954,1.8949,1.8938,0,0]}]]